Date,TemperatureHighF,TemperatureAvgF,TemperatureLowF,DewpointHighF,DewpointAvgF,DewpointLowF,HumidityHigh,HumidityAvg,HumidityLow,PressureMaxIn,PressureMinIn,WindSpeedMaxMPH,WindSpeedAvgMPH,GustSpeedMaxMPH,PrecipitationSumIn
2013-3-1,92.1,80.2,70.7,64.1,45.5,6.1,76,39,5,30.00,29.85,0,0,0,0.00
2013-3-2,93.4,76.9,68.5,64.0,48.7,16.5,77,46,6,29.97,29.85,0,0,0,0.00
2013-3-3,96.4,81.1,68.9,65.6,49.4,16.6,78,42,6,30.00,29.88,0,0,0,0.00
2013-3-4,89.4,76.9,73.4,68.0,62.7,38.9,79,65,18,30.06,29.97,0,0,0,1.14
2013-3-5,77.0,73.9,72.0,71.0,62.4,50.7,90,69,44,30.09,30.00,0,0,0,1.02
2013-3-6,86.2,76.8,68.5,66.5,50.9,37.3,84,46,18,30.09,29.97,0,0,0,1.02
2013-3-7,91.4,79.0,70.0,68.4,56.1,24.8,83,52,11,30.06,29.94,0,0,0,1.02
2013-3-8,84.4,76.4,70.9,71.4,53.8,23.5,86,51,12,30.06,29.97,0,0,0,0.04
2013-3-9,82.4,73.9,67.3,64.9,57.3,43.3,80,60,29,30.03,29.94,0,0,0,1.02
2013-3-10,84.4,75.7,69.3,66.1,45.1,16.6,81,42,8,30.03,29.91,0,0,0,0.00
2013-3-11,85.1,77.0,70.2,58.5,36.4,16.6,64,25,8,30.00,29.91,0,0,0,0.00
2013-3-12,87.6,77.7,69.6,58.4,35.9,9.3,66,29,6,30.06,29.97,0,0,0,0.00
2013-3-13,90.1,79.8,72.5,48.3,31.4,8.6,42,21,5,30.03,29.91,0,0,0,0.00
2013-3-14,90.5,78.3,71.1,59.3,37.9,8.6,66,31,5,30.03,29.88,0,0,0,0.00
2013-3-15,89.4,80.2,70.2,60.0,32.5,8.6,67,23,5,30.03,29.91,0,0,0,0.00
2013-3-16,87.8,76.7,69.4,61.6,50.1,17.8,69,43,8,30.06,29.97,0,0,0,0.00
2013-3-17,91.4,79.5,69.4,65.1,49.4,17.9,80,42,10,30.12,30.00,0,0,0,0.00
2013-3-18,87.1,77.6,71.8,67.1,56.6,34.6,80,53,18,30.12,30.00,0,0,0,0.51
2013-3-19,86.5,77.6,71.4,71.4,58.9,39.0,88,58,20,30.06,29.91,0,0,0,0.08
2013-3-20,93.9,80.9,70.2,68.4,48.8,16.5,84,43,6,30.00,29.85,0,0,0,0.00
2013-3-21,96.4,83.8,75.7,64.3,47.7,16.5,66,35,6,29.97,29.82,0,0,0,0.00
2013-3-22,98.2,83.6,73.9,67.3,51.7,18.2,75,42,6,30.03,29.91,0,0,0,0.00
2013-3-23,89.8,82.1,75.0,71.8,59.7,43.0,83,51,23,30.06,29.94,0,0,0,0.04
2013-3-24,90.5,80.8,72.1,68.2,55.4,40.2,79,47,19,30.03,29.88,0,0,0,0.00
2013-3-25,98.1,84.1,71.8,66.9,46.8,16.5,79,38,6,30.00,29.88,0,0,0,0.00
2013-3-26,98.4,84.9,74.1,68.5,46.8,3.7,78,38,6,30.03,29.88,0,0,0,0.00
2013-3-27,95.0,83.9,72.7,65.5,48.4,16.5,74,37,6,30.03,29.91,0,0,0,0.00
2013-3-28,94.3,82.8,73.4,68.8,50.6,16.5,76,40,6,30.03,29.91,0,0,0,0.00
2013-3-29,82.9,74.6,71.8,70.9,65.3,54.6,87,73,39,30.15,29.97,0,0,0,3.54
2013-3-30,80.1,75.1,71.2,69.5,63.9,56.0,88,69,47,30.15,30.03,0,0,0,0.47
2013-3-31,82.2,75.7,72.5,71.6,67.0,59.3,88,75,48,30.15,30.06,0,0,0,0.39